Wind_Speed
22 23 23 22 22 21 20 20 20 20 19 19 19 19 20 20 20 20 20 19 20 19 18 18 19 20 20 20 20 21 22 23 23 23 23 23 23 23 23 23 23 22 22
24 23 22 22 22 21 21 21 21 20 20 20 20 20 20 20 21 21 20 20 20 20 20 20 20 21 21 21 22 23 23 24 24 25 24 25 25 24 24 25 26 25 25
25 24 24 23 23 22 22 22 22 22 22 22 21 21 21 21 21 21 21 21 21 21 21 22 22 22 22 23 24 25 25 25 26 25 26 26 26 27 27 26 27 27 27
25 24 24 23 24 24 23 22 22 23 23 22 22 22 22 22 21 21 21 21 22 22 22 23 23 23 23 24 25 26 27 27 27 27 27 27 28 28 28 29 29 28 28
23 23 24 24 24 24 23 23 24 24 24 24 23 22 22 22 22 22 22 23 23 23 23 23 23 24 24 25 26 27 27 27 27 27 28 28 28 29 30 29 30 30 30
24 24 24 24 25 25 24 24 24 24 24 24 24 23 23 23 23 24 24 24 25 24 24 24 24 25 25 26 27 27 28 28 27 27 28 29 29 30 30 30 30 32 32
25 25 25 25 26 25 25 25 25 25 24 24 24 24 23 23 24 25 25 26 26 26 25 25 26 27 27 27 28 28 28 28 28 28 28 28 30 31 30 30 29 30 32
25 25 25 26 26 25 25 25 25 25 24 24 25 24 24 25 25 26 26 27 27 27 27 27 28 28 28 29 29 29 29 29 29 29 29 29 31 31 30 29 30 30 30
24 24 24 25 26 26 26 26 26 26 25 25 25 26 26 25 26 26 26 26 27 27 27 27 28 29 29 30 30 30 29 29 30 30 31 30 31 30 29 29 30 30 30
23 24 24 25 26 26 26 26 26 26 26 26 26 27 27 26 26 26 26 26 26 27 28 28 28 29 29 30 30 30 30 30 29 29 30 30 30 30 30 30 30 30 30
24 24 24 24 25 25 25 25 26 26 26 26 26 27 27 27 27 26 25 26 26 26 27 28 28 29 30 30 30 30 30 30 29 29 29 30 30 30 29 29 29 29 29
24 24 24 24 24 24 25 25 25 26 26 27 27 27 27 26 26 26 25 26 26 26 27 27 28 29 29 30 29 29 29 28 27 28 29 29 29 29 29 28 28 29 29
22 23 23 24 25 25 25 25 26 26 26 27 27 27 26 26 26 26 26 26 26 26 26 27 27 28 28 28 28 28 27 26 26 27 27 28 27 27 27 28 27 28 29
24 24 24 24 25 26 26 25 26 26 27 27 27 27 26 26 26 26 26 26 26 26 26 26 27 27 27 27 26 25 25 24 25 25 25 25 26 26 27 27 28 28 29
24 24 24 25 25 25 25 26 26 26 27 27 26 26 26 26 26 26 26 26 26 26 26 25 25 25 25 24 23 23 23 23 24 23 23 24 24 25 25 26 27 27 27
23 23 23 24 24 25 26 26 26 26 26 26 26 26 25 26 26 26 26 26 26 26 25 25 24 23 23 22 21 21 21 21 22 22 22 23 23 24 24 25 25 26 25
25 25 25 24 24 25 25 25 25 26 26 26 26 25 25 25 25 25 25 25 24 24 24 23 22 21 21 20 20 19 20 20 20 21 21 21 21 22 23 23 21 21 22
25 25 25 24 24 24 24 24 24 24 25 25 25 25 25 25 24 24 24 23 22 22 22 21 21 20 19 18 18 18 18 18 18 18 18 18 19 19 19 18 18 18 18
24 24 24 23 23 22 22 23 23 23 22 22 23 23 23 23 23 22 22 22 22 21 20 20 19 18 18 17 17 17 17 16 16 16 16 16 16 16 16 16 16 16 16
22 23 22 22 21 21 21 21 21 21 21 20 21 21 21 21 21 21 20 20 20 19 19 18 17 17 16 16 16 15 15 14 14 14 14 14 13 14 14 13 13 13 13
21 21 21 20 20 20 19 19 19 18 18 19 19 18 19 19 19 18 18 18 17 17 16 16 15 15 14 14 14 14 13 12 12 12 11 12 11 11 10 10 10 11 11
20 20 19 19 19 18 17 16 16 16 16 16 16 17 17 16 15 15 16 16 15 15 15 13 13 12 12 12 12 11 10 9 9 9 9 10 9 9 8 8 9 10 11
18 18 17 17 16 15 15 15 15 14 14 14 14 14 14 14 13 13 13 13 13 13 13 13 13 12 10 10 9 8 8 7 7 7 7 7 7 8 7 8 9 9 11
14 14 14 14 13 12 12 12 11 12 12 12 11 11 10 10 10 10 11 11 11 11 11 12 11 11 10 9 8 7 6 6 6 6 6 6 6 6 7 8 8 9 11
11 10 10 10 9 8 8 7 7 7 7 7 7 7 7 6 6 6 7 8 8 8 9 8 7 7 7 6 6 5 5 4 4 5 5 5 6 7 7 8 9 10 11
9 8 7 7 6 6 5 5 5 4 4 3 3 2 2 3 3 3 3 3 3 4 4 3 4 5 5 4 4 3 3 3 3 4 5 6 6 7 8 9 9 11 12
Wind_Direction
255 254 254 256 260 259 260 261 266 270 273 272 270 270 272 273 278 280 279 279 280 280 281 283 283 279 276 272 269 267 266 262 260 260 259 258 256 254 252 251 251 253 254
257 260 258 259 262 263 266 267 267 271 273 274 274 272 272 274 276 277 278 279 282 282 282 283 282 281 278 275 272 270 270 267 262 262 259 258 258 258 257 254 253 253 254
261 260 261 261 262 266 268 268 269 272 275 273 274 274 274 274 277 277 277 280 281 282 283 282 282 279 278 277 275 273 271 269 266 266 262 261 260 260 258 257 256 255 256
261 261 264 265 264 265 267 268 271 273 275 273 274 274 276 275 278 279 279 280 281 281 281 281 281 281 279 277 277 276 274 272 269 269 266 262 261 261 260 259 259 257 256
265 264 267 268 267 267 268 271 273 274 275 274 275 274 275 276 276 277 279 279 280 280 280 279 281 282 281 280 278 277 275 273 271 271 269 265 263 261 261 262 260 259 257
269 269 269 269 269 270 270 272 273 274 275 274 275 275 275 276 276 278 278 279 279 279 280 280 280 281 281 281 281 280 276 274 272 273 270 268 267 266 265 264 264 262 260
270 269 269 270 272 272 274 275 276 276 276 277 278 278 278 278 278 279 280 280 280 281 281 282 281 280 280 281 282 280 277 275 274 275 273 272 270 270 269 266 267 265 262
272 272 271 270 269 271 274 275 276 276 276 278 279 279 278 281 281 280 281 282 282 282 282 282 282 282 281 281 282 281 278 276 275 275 276 275 273 271 270 268 268 267 264
274 274 274 272 270 271 272 273 275 275 276 276 277 279 279 279 281 281 280 280 282 283 284 284 284 284 283 283 281 281 279 276 275 274 273 272 270 269 270 269 270 270 268
276 275 274 273 272 272 272 273 274 275 276 276 277 278 279 280 281 280 281 281 281 282 284 285 284 284 284 284 283 282 280 277 276 274 273 272 270 269 270 270 271 271 270
279 279 277 274 275 274 275 275 276 275 275 277 277 278 278 279 280 280 280 281 282 282 284 285 286 286 286 284 284 283 281 280 276 274 272 272 271 270 270 270 271 271 273
280 278 278 277 277 276 276 277 276 275 275 276 277 277 277 277 278 279 280 281 282 284 285 286 287 289 287 285 284 284 283 282 279 275 275 274 272 271 270 270 272 271 272
281 279 279 280 278 277 277 277 277 276 276 276 277 276 276 276 278 279 280 281 282 284 286 288 288 289 289 286 285 284 284 283 280 278 277 275 273 272 272 272 275 275 273
283 282 280 278 279 278 276 276 276 276 276 276 276 276 275 276 278 279 280 281 283 284 285 287 288 289 289 287 285 284 285 282 282 279 277 277 275 274 272 270 274 274 273
284 282 279 278 279 279 277 277 277 276 275 274 274 274 275 276 277 278 280 281 282 283 284 285 287 287 287 286 286 284 284 285 284 280 278 277 274 273 273 270 271 272 271
285 284 284 282 282 281 279 278 277 277 276 276 275 274 275 276 277 278 280 281 282 283 284 285 286 284 284 285 284 285 285 285 285 283 280 278 276 276 277 277 276 274 274
287 287 287 285 283 282 280 279 278 278 277 276 276 275 276 277 276 276 278 280 281 283 283 283 283 282 282 282 282 284 285 285 287 285 284 283 283 284 282 280 278 276 275
286 286 286 285 283 283 282 281 280 279 278 277 276 275 276 277 277 275 276 278 280 281 281 281 280 280 279 280 282 284 287 287 285 285 285 285 286 285 283 278 277 278 280
287 287 286 285 284 283 283 283 281 279 278 277 276 276 275 275 276 275 275 277 278 279 279 278 277 277 278 280 282 284 285 287 285 285 286 288 288 287 286 284 284 282 282
286 286 287 285 284 284 284 283 282 280 278 276 276 276 275 274 274 275 275 275 276 277 276 274 273 275 276 277 281 284 285 285 286 288 290 292 292 292 291 289 288 288 288
286 285 285 285 285 285 284 284 282 281 280 277 276 276 277 277 276 274 274 272 274 273 271 270 271 272 274 276 278 282 285 287 289 291 295 298 298 300 298 294 293 295 295
287 285 285 285 285 285 283 283 283 281 281 278 278 277 276 277 275 272 269 268 268 267 266 267 270 271 273 274 277 279 280 284 288 293 301 305 307 308 307 307 306 302 302
290 288 286 286 285 283 284 284 282 280 281 281 282 280 278 276 272 269 265 263 263 263 264 265 265 267 269 270 271 270 276 283 292 299 305 308 308 311 313 315 315 316 316
290 289 288 287 286 283 284 287 284 280 278 277 278 278 277 277 273 267 264 263 260 259 260 260 259 261 265 266 266 268 269 279 289 297 305 315 318 320 323 324 324 324 324
292 293 292 292 288 285 287 289 288 289 286 282 280 278 275 277 273 267 265 263 261 262 261 257 253 253 258 258 261 266 266 274 287 299 315 327 334 337 338 338 333 329 328
291 295 296 298 292 288 284 283 294 300 302 303 291 277 270 267 274 265 260 255 258 256 253 255 246 242 241 246 249 252 259 274 284 302 320 330 336 339 342 341 335 332 331
Height
5870 5870 5871 5872 5873 5874 5874 5875 5876 5877 5878 5878 5878 5878 5878 5878 5878 5878 5877 5877 5877 5878 5878 5878 5878 5878 5877 5878 5878 5878 5879 5879 5879 5880 5880 5880 5881 5882 5882 5883 5884 5885 5885
5865 5866 5867 5868 5868 5869 5870 5870 5872 5872 5873 5873 5873 5873 5873 5874 5874 5874 5874 5874 5874 5874 5874 5873 5873 5873 5873 5873 5873 5873 5874 5874 5875 5875 5875 5876 5876 5877 5877 5878 5879 5880 5880
5860 5861 5862 5863 5864 5865 5866 5867 5867 5868 5868 5868 5868 5868 5868 5869 5869 5869 5869 5869 5869 5869 5869 5869 5869 5868 5868 5868 5868 5868 5868 5869 5869 5869 5870 5870 5871 5871 5872 5872 5873 5874 5874
5855 5855 5857 5858 5859 5860 5861 5862 5862 5862 5863 5863 5863 5863 5864 5864 5864 5864 5864 5864 5864 5864 5864 5864 5864 5863 5863 5863 5862 5862 5862 5863 5863 5863 5864 5864 5865 5865 5866 5866 5867 5867 5868
5850 5851 5852 5853 5854 5855 5856 5857 5857 5857 5858 5858 5858 5858 5859 5858 5859 5859 5859 5859 5859 5858 5859 5859 5858 5858 5857 5857 5857 5856 5856 5856 5857 5857 5857 5858 5858 5859 5859 5860 5860 5861 5862
5846 5846 5847 5847 5848 5850 5850 5851 5851 5852 5852 5852 5853 5853 5853 5853 5853 5853 5853 5853 5853 5853 5853 5853 5852 5852 5851 5851 5850 5850 5850 5850 5850 5850 5851 5851 5851 5852 5852 5853 5853 5854 5855
5840 5841 5842 5843 5843 5844 5845 5845 5846 5846 5846 5847 5847 5847 5847 5847 5847 5847 5847 5847 5847 5847 5847 5846 5846 5846 5845 5845 5844 5844 5843 5843 5843 5844 5844 5844 5845 5845 5845 5846 5846 5847 5847
5834 5835 5836 5837 5837 5838 5838 5839 5840 5840 5840 5841 5841 5841 5841 5842 5841 5841 5841 5841 5841 5840 5840 5840 5839 5839 5839 5838 5838 5837 5837 5836 5836 5837 5837 5838 5838 5838 5838 5839 5839 5840 5840
5829 5829 5830 5830 5831 5832 5832 5833 5833 5834 5834 5834 5834 5835 5835 5835 5835 5835 5834 5834 5834 5834 5833 5833 5833 5832 5831 5831 5831 5830 5829 5829 5829 5830 5830 5830 5831 5831 5831 5832 5832 5832 5833
5823 5823 5823 5824 5825 5825 5826 5826 5827 5827 5828 5828 5828 5828 5828 5828 5828 5828 5828 5828 5827 5827 5826 5826 5825 5825 5824 5824 5823 5823 5822 5822 5822 5822 5822 5823 5823 5824 5824 5824 5825 5825 5825
5817 5817 5818 5818 5818 5819 5819 5820 5820 5820 5821 5821 5821 5821 5821 5821 5821 5821 5821 5821 5821 5820 5820 5819 5818 5818 5817 5816 5816 5816 5815 5815 5815 5815 5815 5816 5816 5816 5816 5816 5817 5817 5817
5812 5811 5812 5812 5812 5813 5813 5813 5813 5814 5814 5814 5814 5814 5814 5814 5814 5814 5814 5814 5814 5813 5813 5812 5812 5811 5810 5809 5809 5808 5808 5807 5807 5807 5808 5808 5808 5809 5809 5809 5809 5810 5810
5806 5805 5806 5806 5806 5806 5806 5806 5806 5806 5807 5807 5807 5807 5807 5807 5807 5807 5807 5807 5807 5807 5806 5806 5805 5804 5803 5802 5802 5801 5801 5801 5800 5800 5801 5801 5801 5801 5801 5802 5802 5802 5802
5800 5799 5799 5799 5799 5799 5799 5799 5799 5799 5799 5799 5799 5800 5800 5800 5800 5800 5800 5800 5800 5800 5799 5799 5798 5798 5797 5796 5795 5795 5795 5794 5794 5794 5794 5794 5794 5794 5794 5794 5795 5794 5794
5794 5793 5793 5793 5792 5792 5792 5792 5792 5792 5792 5792 5792 5792 5792 5792 5792 5792 5793 5793 5794 5793 5793 5792 5792 5791 5790 5790 5789 5789 5789 5788 5788 5788 5788 5788 5787 5787 5787 5787 5787 5787 5787
5787 5786 5786 5786 5785 5785 5785 5785 5784 5784 5784 5784 5785 5785 5785 5785 5785 5785 5785 5785 5786 5786 5786 5786 5785 5785 5784 5784 5783 5783 5783 5783 5782 5782 5781 5781 5781 5781 5781 5780 5780 5780 5780
5781 5780 5780 5779 5779 5778 5777 5777 5777 5777 5777 5777 5777 5777 5777 5777 5778 5778 5778 5779 5779 5779 5779 5779 5779 5779 5779 5778 5778 5778 5778 5777 5777 5776 5776 5775 5775 5775 5774 5774 5773 5773 5773
5775 5774 5773 5773 5772 5771 5770 5770 5770 5770 5770 5770 5770 5770 5770 5770 5771 5771 5772 5772 5772 5773 5773 5773 5773 5773 5773 5773 5773 5773 5773 5772 5772 5771 5771 5770 5770 5770 5769 5768 5767 5767 5767
5769 5768 5767 5766 5765 5765 5764 5764 5763 5763 5763 5763 5763 5763 5764 5764 5764 5765 5766 5766 5766 5767 5767 5767 5768 5768 5768 5768 5768 5768 5768 5767 5767 5766 5766 5765 5765 5764 5764 5763 5762 5762 5762
5763 5762 5761 5760 5759 5759 5758 5757 5757 5757 5756 5756 5757 5757 5757 5758 5758 5759 5760 5760 5761 5761 5761 5762 5763 5763 5763 5764 5764 5764 5763 5763 5763 5762 5762 5761 5760 5760 5759 5758 5758 5758 5758
5757 5756 5755 5755 5754 5753 5752 5752 5751 5751 5751 5751 5751 5751 5752 5752 5753 5753 5754 5755 5755 5756 5756 5757 5758 5758 5759 5759 5760 5760 5760 5759 5759 5759 5758 5758 5757 5756 5755 5755 5754 5754 5754
5752 5751 5750 5750 5749 5748 5747 5747 5746 5746 5746 5746 5746 5746 5747 5747 5747 5748 5749 5750 5750 5751 5752 5753 5754 5754 5755 5755 5756 5756 5756 5756 5756 5756 5755 5754 5754 5753 5752 5751 5751 5751 5750
5747 5746 5746 5745 5744 5744 5743 5743 5742 5742 5742 5742 5742 5742 5742 5742 5743 5744 5744 5745 5746 5747 5748 5749 5750 5751 5751 5752 5752 5752 5753 5753 5753 5753 5753 5752 5751 5750 5749 5749 5748 5747 5746
5743 5742 5741 5741 5740 5740 5739 5739 5739 5738 5738 5738 5738 5738 5738 5739 5739 5740 5740 5741 5742 5743 5744 5745 5746 5747 5748 5749 5749 5750 5750 5750 5750 5750 5750 5750 5749 5748 5747 5746 5745 5744 5743
5739 5739 5738 5738 5737 5737 5737 5737 5736 5736 5736 5735 5735 5736 5736 5736 5737 5737 5738 5738 5739 5740 5741 5742 5743 5744 5745 5746 5747 5748 5748 5748 5749 5748 5748 5747 5747 5746 5745 5744 5743 5742 5740
5737 5737 5736 5736 5735 5735 5735 5735 5735 5735 5734 5734 5734 5734 5735 5735 5735 5735 5736 5736 5737 5738 5739 5740 5741 5742 5743 5744 5745 5746 5746 5747 5747 5747 5746 5746 5745 5744 5744 5742 5741 5739 5737